Time,TemperatureF,DewpointF,PressureIn,WindDirection,WindDirectionDegrees,WindSpeedMPH,WindSpeedGustMPH,Humidity,HourlyPrecipIn,Conditions,Clouds,dailyrainin,SoftwareType,DateUTC
2013-09-27 00:12:00,49.9,49.0,30.09,SE,129,0.0,0.0,97,0.00,,,0.00,weatherlink.com 1.10,2013-09-27 04:12:00,
2013-09-27 00:27:00,49.9,49.0,30.09,SE,129,0.0,0.0,97,0.00,,,0.00,weatherlink.com 1.10,2013-09-27 04:27:00,
2013-09-27 00:42:00,49.8,49.0,30.10,SE,129,0.0,0.0,97,0.00,,,0.00,weatherlink.com 1.10,2013-09-27 04:42:00,
2013-09-27 00:57:00,49.8,49.0,30.10,SE,129,0.0,0.0,97,0.00,,,0.00,weatherlink.com 1.10,2013-09-27 04:57:00,
2013-09-27 01:12:00,49.6,49.0,30.10,SE,129,0.0,0.0,97,0.00,,,0.00,weatherlink.com 1.10,2013-09-27 05:12:00,
2013-09-27 01:27:00,49.4,49.0,30.10,SE,130,0.0,0.0,97,0.00,,,0.00,weatherlink.com 1.10,2013-09-27 05:27:00,
2013-09-27 01:42:00,49.2,49.0,30.11,NNE,14,0.0,2.0,98,0.00,,,0.00,weatherlink.com 1.10,2013-09-27 05:42:00,
2013-09-27 01:57:00,50.1,49.0,30.11,NNE,13,0.0,1.0,97,0.00,,,0.00,weatherlink.com 1.10,2013-09-27 05:57:00,
2013-09-27 02:12:00,49.9,49.0,30.11,NNE,14,0.0,1.0,96,0.00,,,0.00,weatherlink.com 1.10,2013-09-27 06:12:00,
2013-09-27 02:27:00,50.2,49.0,30.11,NNE,13,0.0,1.0,95,0.00,,,0.00,weatherlink.com 1.10,2013-09-27 06:27:00,
2013-09-27 02:42:00,50.1,49.0,30.11,NNE,14,0.0,1.0,95,0.00,,,0.00,weatherlink.com 1.10,2013-09-27 06:42:00,
2013-09-27 02:57:00,49.8,49.0,30.11,NNE,14,0.0,1.0,95,0.00,,,0.00,weatherlink.com 1.10,2013-09-27 06:57:00,
2013-09-27 03:12:00,49.5,48.0,30.11,NNE,12,0.0,1.0,95,0.00,,,0.00,weatherlink.com 1.10,2013-09-27 07:12:00,
2013-09-27 03:27:00,49.4,48.0,30.11,NNE,12,1.0,1.0,96,0.00,,,0.00,weatherlink.com 1.10,2013-09-27 07:27:00,
2013-09-27 03:42:00,49.3,48.0,30.12,NNE,13,0.0,1.0,96,0.00,,,0.00,weatherlink.com 1.10,2013-09-27 07:42:00,
2013-09-27 03:57:00,48.4,47.0,30.12,NNE,13,0.0,1.0,95,0.00,,,0.00,weatherlink.com 1.10,2013-09-27 07:57:00,
2013-09-27 04:12:00,48.2,47.0,30.12,NNE,12,0.0,1.0,96,0.00,,,0.00,weatherlink.com 1.10,2013-09-27 08:12:00,
2013-09-27 04:27:00,48.2,47.0,30.12,NNE,12,0.0,1.0,96,0.00,,,0.00,weatherlink.com 1.10,2013-09-27 08:27:00,
2013-09-27 04:42:00,48.3,48.0,30.13,NNE,13,0.0,1.0,97,0.00,,,0.00,weatherlink.com 1.10,2013-09-27 08:42:00,
2013-09-27 04:57:00,48.2,47.0,30.13,NNE,13,0.0,1.0,96,0.00,,,0.00,weatherlink.com 1.10,2013-09-27 08:57:00,
2013-09-27 05:12:00,48.0,47.0,30.14,NNE,13,0.0,1.0,96,0.00,,,0.00,weatherlink.com 1.10,2013-09-27 09:12:00,
2013-09-27 05:27:00,48.0,47.0,30.14,NNE,13,0.0,1.0,96,0.00,,,0.00,weatherlink.com 1.10,2013-09-27 09:27:00,
2013-09-27 05:42:00,48.1,47.0,30.14,NNE,13,0.0,1.0,96,0.00,,,0.00,weatherlink.com 1.10,2013-09-27 09:42:00,
2013-09-27 05:57:00,48.0,47.0,30.15,NNE,13,0.0,1.0,96,0.00,,,0.00,weatherlink.com 1.10,2013-09-27 09:57:00,
2013-09-27 06:13:00,48.2,47.0,30.15,North,10,1.0,1.0,97,0.00,,,0.00,weatherlink.com 1.10,2013-09-27 10:13:00,
2013-09-27 06:28:00,48.3,48.0,30.16,North,11,0.0,2.0,97,0.00,,,0.00,weatherlink.com 1.10,2013-09-27 10:28:00,
2013-09-27 06:43:00,48.3,48.0,30.16,North,11,1.0,1.0,97,0.00,,,0.00,weatherlink.com 1.10,2013-09-27 10:43:00,
2013-09-27 06:58:00,48.5,48.0,30.17,North,10,0.0,1.0,96,0.00,,,0.00,weatherlink.com 1.10,2013-09-27 10:58:00,
2013-09-27 07:12:00,48.8,48.0,30.17,North,1,1.0,2.0,96,0.00,,,0.00,weatherlink.com 1.10,2013-09-27 11:12:00,
2013-09-27 07:27:00,49.0,48.0,30.18,North,5,1.0,1.0,96,0.00,,,0.00,weatherlink.com 1.10,2013-09-27 11:27:00,
2013-09-27 07:42:00,49.3,48.0,30.18,North,4,0.0,2.0,96,0.00,,,0.00,weatherlink.com 1.10,2013-09-27 11:42:00,
2013-09-27 07:57:00,49.9,49.0,30.19,North,4,0.0,2.0,96,0.00,,,0.00,weatherlink.com 1.10,2013-09-27 11:57:00,
2013-09-27 08:13:00,50.3,49.0,30.19,North,4,0.0,1.0,96,0.00,,,0.00,weatherlink.com 1.10,2013-09-27 12:13:00,
2013-09-27 08:28:00,50.9,50.0,30.20,North,4,0.0,1.0,96,0.00,,,0.00,weatherlink.com 1.10,2013-09-27 12:28:00,
2013-09-27 08:43:00,51.8,51.0,30.20,North,5,0.0,2.0,95,0.00,,,0.00,weatherlink.com 1.10,2013-09-27 12:43:00,
2013-09-27 08:58:00,52.8,51.0,30.20,North,7,0.0,1.0,94,0.00,,,0.00,weatherlink.com 1.10,2013-09-27 12:58:00,
2013-09-27 09:13:00,54.1,52.0,30.21,NNE,27,0.0,1.0,91,0.00,,,0.00,weatherlink.com 1.10,2013-09-27 13:13:00,
2013-09-27 09:28:00,54.6,52.0,30.21,NNE,23,0.0,1.0,89,0.00,,,0.00,weatherlink.com 1.10,2013-09-27 13:28:00,
2013-09-27 09:43:00,55.1,52.0,30.22,NNE,23,0.0,1.0,89,0.00,,,0.00,weatherlink.com 1.10,2013-09-27 13:43:00,
2013-09-27 09:58:00,55.6,52.0,30.22,NNE,23,0.0,1.0,88,0.00,,,0.00,weatherlink.com 1.10,2013-09-27 13:58:00,
2013-09-27 10:13:00,56.2,52.0,30.22,NNE,23,0.0,1.0,87,0.00,,,0.00,weatherlink.com 1.10,2013-09-27 14:13:00,
2013-09-27 10:28:00,56.8,53.0,30.22,NNE,22,0.0,1.0,87,0.00,,,0.00,weatherlink.com 1.10,2013-09-27 14:28:00,
2013-09-27 10:43:00,57.8,54.0,30.22,NNE,22,0.0,1.0,88,0.00,,,0.00,weatherlink.com 1.10,2013-09-27 14:43:00,
2013-09-27 10:58:00,58.4,54.0,30.22,North,358,0.0,1.0,85,0.00,,,0.00,weatherlink.com 1.10,2013-09-27 14:58:00,
2013-09-27 11:13:00,59.1,54.0,30.22,NNE,17,0.0,2.0,82,0.00,,,0.00,weatherlink.com 1.10,2013-09-27 15:13:00,
2013-09-27 11:28:00,59.4,54.0,30.22,WSW,254,1.0,2.0,81,0.00,,,0.00,weatherlink.com 1.10,2013-09-27 15:28:00,
2013-09-27 11:43:00,59.7,53.0,30.22,NNE,13,0.0,1.0,79,0.00,,,0.00,weatherlink.com 1.10,2013-09-27 15:43:00,
2013-09-27 12:14:00,60.4,53.0,30.22,NE,35,0.0,2.0,76,0.00,,,0.00,weatherlink.com 1.10,2013-09-27 16:14:00,
2013-09-27 12:29:00,60.7,54.0,30.22,NE,35,1.0,2.0,78,0.00,,,0.00,weatherlink.com 1.10,2013-09-27 16:29:00,
2013-09-27 12:44:00,60.7,53.0,30.22,NE,36,0.0,1.0,77,0.00,,,0.00,weatherlink.com 1.10,2013-09-27 16:44:00,
2013-09-27 12:59:00,60.8,54.0,30.22,North,357,0.0,1.0,78,0.00,,,0.00,weatherlink.com 1.10,2013-09-27 16:59:00,
2013-09-27 13:14:00,60.6,53.0,30.21,North,1,0.0,1.0,77,0.00,,,0.00,weatherlink.com 1.10,2013-09-27 17:14:00,
2013-09-27 13:29:00,61.2,54.0,30.21,ENE,65,0.0,1.0,78,0.00,,,0.00,weatherlink.com 1.10,2013-09-27 17:29:00,
2013-09-27 13:44:00,60.9,54.0,30.21,North,358,0.0,1.0,78,0.00,,,0.00,weatherlink.com 1.10,2013-09-27 17:44:00,
2013-09-27 13:59:00,60.8,54.0,30.20,North,2,0.0,1.0,77,0.00,,,0.00,weatherlink.com 1.10,2013-09-27 17:59:00,
2013-09-27 14:14:00,60.5,53.0,30.20,NE,48,0.0,1.0,77,0.00,,,0.00,weatherlink.com 1.10,2013-09-27 18:14:00,
2013-09-27 14:29:00,60.6,54.0,30.20,NE,47,0.0,1.0,78,0.00,,,0.00,weatherlink.com 1.10,2013-09-27 18:29:00,
2013-09-27 14:44:00,60.8,53.0,30.20,NE,47,0.0,1.0,75,0.00,,,0.00,weatherlink.com 1.10,2013-09-27 18:44:00,
2013-09-27 14:59:00,60.8,54.0,30.20,NE,46,0.0,1.0,79,0.00,,,0.00,weatherlink.com 1.10,2013-09-27 18:59:00,
2013-09-27 15:14:00,60.6,53.0,30.19,ESE,117,0.0,1.0,77,0.00,,,0.00,weatherlink.com 1.10,2013-09-27 19:14:00,
2013-09-27 15:29:00,60.5,53.0,30.19,NE,46,0.0,1.0,77,0.00,,,0.00,weatherlink.com 1.10,2013-09-27 19:29:00,
2013-09-27 15:44:00,60.5,53.0,30.20,North,354,0.0,1.0,77,0.00,,,0.00,weatherlink.com 1.10,2013-09-27 19:44:00,
2013-09-27 15:59:00,60.4,54.0,30.20,North,355,0.0,0.0,79,0.00,,,0.00,weatherlink.com 1.10,2013-09-27 19:59:00,
2013-09-27 16:14:00,60.6,55.0,30.20,North,357,0.0,0.0,82,0.00,,,0.00,weatherlink.com 1.10,2013-09-27 20:14:00,
2013-09-27 16:29:00,60.5,55.0,30.20,North,358,0.0,0.0,81,0.00,,,0.00,weatherlink.com 1.10,2013-09-27 20:29:00,
2013-09-27 16:44:00,60.3,54.0,30.20,North,359,0.0,1.0,79,0.00,,,0.00,weatherlink.com 1.10,2013-09-27 20:44:00,
2013-09-27 16:59:00,59.9,53.0,30.20,North,359,0.0,1.0,79,0.00,,,0.00,weatherlink.com 1.10,2013-09-27 20:59:00,
2013-09-27 17:14:00,59.7,53.0,30.20,North,359,0.0,0.0,79,0.00,,,0.00,weatherlink.com 1.10,2013-09-27 21:14:00,
2013-09-27 17:29:00,59.4,54.0,30.21,North,360,0.0,0.0,82,0.00,,,0.00,weatherlink.com 1.10,2013-09-27 21:29:00,
2013-09-27 17:44:00,59.0,54.0,30.21,North,360,0.0,0.0,82,0.00,,,0.00,weatherlink.com 1.10,2013-09-27 21:44:00,
2013-09-27 17:59:00,58.7,54.0,30.21,North,360,0.0,0.0,83,0.00,,,0.00,weatherlink.com 1.10,2013-09-27 21:59:00,
2013-09-27 18:14:00,58.5,54.0,30.21,North,359,0.0,0.0,84,0.00,,,0.00,weatherlink.com 1.10,2013-09-27 22:14:00,
2013-09-27 18:29:00,58.3,54.0,30.21,North,359,0.0,0.0,84,0.00,,,0.00,weatherlink.com 1.10,2013-09-27 22:29:00,
2013-09-27 18:44:00,58.0,54.0,30.21,North,359,0.0,0.0,86,0.00,,,0.00,weatherlink.com 1.10,2013-09-27 22:44:00,
2013-09-27 18:59:00,57.6,54.0,30.21,North,359,0.0,0.0,86,0.00,,,0.00,weatherlink.com 1.10,2013-09-27 22:59:00,
2013-09-27 19:14:00,57.1,54.0,30.22,North,359,0.0,0.0,88,0.00,,,0.00,weatherlink.com 1.10,2013-09-27 23:14:00,
2013-09-27 19:29:00,56.9,53.0,30.22,North,359,0.0,0.0,87,0.00,,,0.00,weatherlink.com 1.10,2013-09-27 23:29:00,
2013-09-27 19:44:00,56.6,54.0,30.22,North,359,0.0,0.0,90,0.00,,,0.00,weatherlink.com 1.10,2013-09-27 23:44:00,
2013-09-27 19:59:00,56.0,54.0,30.22,North,359,0.0,0.0,91,0.00,,,0.00,weatherlink.com 1.10,2013-09-27 23:59:00,
2013-09-27 20:15:00,55.8,54.0,30.23,North,359,0.0,0.0,92,0.00,,,0.00,weatherlink.com 1.10,2013-09-28 00:15:00,
2013-09-27 20:30:00,55.6,53.0,30.23,North,359,0.0,0.0,92,0.00,,,0.00,weatherlink.com 1.10,2013-09-28 00:30:00,
2013-09-27 20:45:00,55.7,53.0,30.23,North,359,0.0,0.0,91,0.00,,,0.00,weatherlink.com 1.10,2013-09-28 00:45:00,
2013-09-27 21:01:00,55.7,53.0,30.23,North,359,0.0,0.0,91,0.00,,,0.00,weatherlink.com 1.10,2013-09-28 01:01:00,
2013-09-27 21:14:00,55.6,53.0,30.23,North,359,0.0,0.0,91,0.00,,,0.00,weatherlink.com 1.10,2013-09-28 01:14:00,
2013-09-27 21:31:00,55.7,53.0,30.24,North,359,0.0,0.0,91,0.00,,,0.00,weatherlink.com 1.10,2013-09-28 01:31:00,
2013-09-27 21:46:00,55.5,53.0,30.24,North,359,0.0,0.0,91,0.00,,,0.00,weatherlink.com 1.10,2013-09-28 01:46:00,
2013-09-27 22:01:00,55.5,53.0,30.24,North,359,0.0,0.0,92,0.00,,,0.00,weatherlink.com 1.10,2013-09-28 02:01:00,
2013-09-27 22:16:00,55.4,53.0,30.25,North,359,0.0,0.0,92,0.00,,,0.00,weatherlink.com 1.10,2013-09-28 02:16:00,
2013-09-27 22:31:00,55.4,53.0,30.25,North,359,0.0,0.0,91,0.00,,,0.00,weatherlink.com 1.10,2013-09-28 02:31:00,
2013-09-27 22:46:00,55.3,53.0,30.26,North,359,0.0,0.0,91,0.00,,,0.00,weatherlink.com 1.10,2013-09-28 02:46:00,
2013-09-27 23:01:00,55.2,53.0,30.26,North,359,0.0,0.0,92,0.00,,,0.00,weatherlink.com 1.10,2013-09-28 03:01:00,
2013-09-27 23:16:00,55.1,53.0,30.26,North,359,0.0,0.0,92,0.00,,,0.00,weatherlink.com 1.10,2013-09-28 03:16:00,
2013-09-27 23:31:00,55.1,53.0,30.26,North,359,0.0,0.0,92,0.00,,,0.00,weatherlink.com 1.10,2013-09-28 03:31:00,
2013-09-27 23:46:00,55.1,53.0,30.26,North,359,0.0,0.0,92,0.00,,,0.00,weatherlink.com 1.10,2013-09-28 03:46:00,